Weather in Heidelberg

Germany     49°24′35″N   8°41′04″E
temp.,
°C
wind,
m/s
gust,
m/s
humid.,
%
clouds,
%
prec.,
mm/h
press.,
hPa
HPBL,
m
16 may, sun
sun1623:00+8sw5139884 1.1 1006766
02:00+9sw4109871 1.4 1006720
05:00+8ssw3998100 0.2 1006504
08:00+9sw4898100 2.8 1006759
11:00+9sw41093100 0.4 1007964
14:00+14sw576787 1.0 10051447
17:00+11sw61094100 3.4 1004863
20:00+10ssw3796100 6.1 1004418
17 may, mon
mon1723:00+9ssw31099100 2.8 1005354
02:00+9sw41196100 4.1 1005701
05:00+8sw61398100 1.9 10061201
08:00+8sw51198100 5.6 10081148
11:00+8sw61196100 1.7 10091055
14:00+8sw51295100 2.4 10101188
17:00+9sw6129178 0.6 10111110
20:00+10sw5119372 1.3 1011847
18 may, tue
tue1823:00+8sw4119864 0.5 1012521
02:00+8sw31198100 1.0 1013572
05:00+8sw3109991 1.4 1013565
08:00+8sw41097100 3.3 1014824
11:00+9wsw5109597 0.8 1015920
14:00+9sw6119291 2.2 10161001
17:00+9w5109495 1.9 1016843
20:00+9wsw4109496 3.9 1017614
19 may, wed
wed1923:00+7sw249938 0.9 1019105
02:00+5ssw2210056 0.9 102036
05:00+6ssw2410095 0.0 1020161
08:00+7sw369798 0.2 1022467
11:00+10wsw4787100 0.5 10211007
14:00+13w686897 1.8 10201743
17:00+13sw466641 1.0 10201258
20:00+11w27845 1.5 1020300
20 may, thu
thu2023:00+7s229674 0.1 102133
02:00+6s239947 0.1 102058
05:00+7sw13100100 2.4 1019193
08:00+7sw0197100 7.8 102052
11:00+8s119395 0.4 1022155
14:00+13w347786 1.4 10221092
17:00+13w34779 1.1 1022824
20:00+12ssw23785 1.3 102285